Preview of NWS' New Version of Forecast
This preview is not operational and should not be used for support decisions.

Regional Weather Roundup (RWR)

Issued by Philadelphia/Mt Holly (PHI)

                            
000
ASUS41 KPHI 171612
RWRPHI

REGIONAL WEATHER ROUNDUP
NATIONAL WEATHER SERVICE MOUNT HOLLY NJ
1200 PM EDT TUE SEP 17 2019

NOTE:  "FAIR" INDICATES FEW OR NO CLOUDS BELOW 12,000 FEET WITH NO
SIGNIFICANT WEATHER AND/OR OBSTRUCTIONS TO VISIBILITY.

 * = STATION DOES NOT REPORT PRECIPITATION (E.G. RAIN, SNOW, ETC.) 
        OR FOG.

NJZ015>026-171700-
SOUTHERN NEW JERSEY
  
CITY           SKY/WX    TMP DP  RH WIND       PRES   REMARKS
POMONA         FAIR      75  51  43 NE14G24   30.13S                  
WILDWOOD*      FAIR      74  56  53 E17G23    30.13R                  
MILLVILLE      FAIR      76  53  44 NE9       30.13S                  
MOUNT HOLLY    FAIR      74  50  42 E7        30.14F                  
TRENTON        FAIR      73  50  44 E8        30.15F                  

$$
NJZ001>014-171700-
NORTHERN NEW JERSEY
  
CITY           SKY/WX    TMP DP  RH WIND       PRES   REMARKS
SUSSEX         FAIR      71  44  37 NE8       30.18F                  
ANDOVER*         N/A     70  46  42 NE7       30.18F                  
MORRISTOWN     SUNNY     72  52  49 E7G17     30.16F                  
NEWARK         FAIR      73  44  35 NE8       30.15F                  
TETERBORO      FAIR      73  46  38 CALM      30.14F                  
CALDWELL       FAIR      74  44  34 NE8       30.16F                  
SOMERVILLE     FAIR      74  46  36 MISG      30.14F                  
ALLAIRE*       FAIR      71  47  42 NE12      30.16F                  
TOMS RIVER*    FAIR      73  51  46 NE14      30.15F                  

$$
PAZ043-044-047-054-055-060>062-066>071-171700-
EASTERN PENNSYLVANIA
  
CITY           SKY/WX    TMP DP  RH WIND       PRES   REMARKS
PHILADELPHIA   MOSUNNY   76  48  37 NE9       30.15S                  
NORTH PHILA    FAIR      76  49  38 NE10      30.17S                  
BLUE BELL*     FAIR      73  52  47 N6        30.16F                  
DOYLESTOWN     FAIR      73  48  41 VRB5      30.16S                  
QUAKERTOWN*    SUNNY     72  52  49 CALM      30.17                   
PERKASIE*      FAIR      72  50  46 N8        30.18S                  
POTTSTOWN      FAIR      71  52  50 CALM      30.18S                  
LANCASTER      FAIR      74  55  51 VRB3      30.16F                  
COATESVILLE    FAIR      72  54  53 N3G12     30.17F                  
WEST CHESTER   FAIR      72  50  46 E5        30.16S                  
READING        FAIR      73  55  53 NW7       30.15                   
ALLENTOWN      FAIR      72  49  44 NE9       30.17F                  
QN CITY/ALNTWN FAIR      70  50  49 NE5       30.19S                  
MOUNT POCONO   FAIR      67  43  41 N5        30.20S                  
HAZLETON       FAIR      66  46  48 N3        30.24S                  
LEHIGHTON      FAIR      70  46  43 CALM      30.19F                  
WILKES BARRE   FAIR      70  45  40 CALM      30.20F                  

$$
DEZALL-MDZ008-012-015-019-020-171700-
DELAWARE AND EASTERN MARYLAND
  
CITY           SKY/WX    TMP DP  RH WIND       PRES   REMARKS
WILMINGTON     FAIR      77  53  43 NE14      30.15S                  
CHESWOLD       CLOUDY    75  57  53 VRB7      30.13S                  
GEORGETOWN     PTSUNNY   76  60  57 E16       30.12S                  
EASTON         MOSUNNY   77  61  57 E9        30.16R                  
STEVENSVILLE   PTSUNNY   77  57  50 E10       30.13S                  
ABERDEEN       PTSUNNY   75  55  50 E7        30.14S                  
PATUXENT       PTSUNNY   77  61  57 E13       30.11                   
OCEAN CITY     CLOUDY    74  61  63 E13       30.11R                  
WALLOPS ISLAND PTSUNNY   76  64  66 NE18      30.09S                  
CAMBRIDGE      MOSUNNY   77  59  53 NE8       30.11R                  
SALISBURY      PTSUNNY   77  61  57 NE15      30.10S                  

$$
PAZ001-021-NYZ056-072-MDZ011-DCZ001-171700-
OTHER NEARBY LOCATIONS
  
CITY           SKY/WX    TMP DP  RH WIND       PRES   REMARKS
HARRISBURG     FAIR      74  52  46 VRB6      30.16S                  
STATE COLLEGE  SUNNY     68  52  56 NE8       30.22S                  
WILLIAMSPORT   FAIR      70  47  43 VRB5      30.19S                  
BINGHAMTON     FAIR      65  44  46 N10       30.22S                  
NEW YORK CITY  FAIR      73  45  36 NW8       30.17F                  
BALTIMORE      PTSUNNY   76  58  53 E13       30.13S                  
WASHINGTON DC  PTSUNNY   78  63  59 NE14      30.13R                  

$$